| time (UTC) | temp C | wind direction | speed KPH | gust KPH | rain 1hr cm | rain 24hr cm | rain mn cm | humidity % | barometer mb |
| 20260505183714 | 23 | 147 | 22.5 | 40.2 | 0.00 | 0.00 | 0.00 | 46 | 1003.0 |
| 20260505183214 | 23 | 170 | 14.5 | 30.6 | 0.00 | 0.00 | 0.00 | 46 | 1003.0 |
| 20260505183008 | 23 | 79 | 14.5 | 30.6 | 0.00 | 0.00 | 0.00 | 47 | 1003.1 |
| 20260505182714 | 23 | 137 | 11.3 | 40.2 | 0.00 | 0.00 | 0.00 | 47 | 1003.0 |
| 20260505182213 | 23 | 155 | 12.9 | 40.2 | 0.00 | 0.00 | 0.00 | 48 | 1003.1 |
| 20260505181713 | 23 | 139 | 17.7 | 37.0 | 0.00 | 0.00 | 0.00 | 46 | 1003.3 |
| 20260505181213 | 23 | 80 | 16.1 | 37.0 | 0.00 | 0.00 | 0.00 | 47 | 1003.2 |
| 20260505180713 | 23 | 110 | 14.5 | 37.0 | 0.00 | 0.00 | 0.00 | 47 | 1003.2 |
| 20260505180212 | 24 | 143 | 12.9 | 33.8 | 0.00 | 0.00 | 0.00 | 47 | 1003.4 |
| 20260505175651 | 23 | 108 | 16.1 | 35.4 | 0.00 | 0.00 | 0.00 | 45 | 1003.4 |
| 20260505175129 | 23 | 118 | 16.1 | 35.4 | 0.00 | 0.00 | 0.00 | 47 | 1003.6 |
| 20260505174629 | 23 | 152 | 17.7 | 38.6 | 0.00 | 0.00 | 0.00 | 46 | 1003.8 |
| 20260505174046 | 23 | 57 | 20.9 | 43.5 | 0.00 | 0.00 | 0.00 | 46 | 1003.8 |
| 20260505173525 | 23 | 104 | 19.3 | 43.5 | 0.00 | 0.00 | 0.00 | 46 | 1003.8 |
| 20260505173025 | 23 | 59 | 12.9 | 40.2 | 0.00 | 0.00 | 0.00 | 46 | 1003.8 |
| 20260505172504 | 24 | 45 | 9.7 | 29.0 | 0.00 | 0.00 | 0.00 | 48 | 1003.8 |
| 20260505172003 | 24 | 69 | 16.1 | 30.6 | 0.00 | 0.00 | 0.00 | 46 | 1003.8 |
| 20260505171502 | 24 | 45 | 12.9 | 30.6 | 0.00 | 0.00 | 0.00 | 46 | 1003.8 |
| 20260505171002 | 24 | 14 | 9.7 | 32.2 | 0.00 | 0.00 | 0.00 | 46 | 1003.9 |
| 20260505170502 | 23 | 115 | 12.9 | 32.2 | 0.00 | 0.00 | 0.00 | 46 | 1004.1 |
| 20260505170002 | 23 | 116 | 12.9 | 30.6 | 0.00 | 0.00 | 0.00 | 46 | 1004.0 |
| 20260505165501 | 23 | 143 | 14.5 | 37.0 | 0.00 | 0.00 | 0.00 | 47 | 1004.1 |
| 20260505165001 | 23 | 81 | 9.7 | 35.4 | 0.00 | 0.00 | 0.00 | 47 | 1004.3 |
| 20260505164501 | 23 | 111 | 17.7 | 35.4 | 0.00 | 0.00 | 0.00 | 45 | 1004.3 |
| 20260505164000 | 23 | 108 | 16.1 | 32.2 | 0.00 | 0.00 | 0.00 | 46 | 1004.4 |
| 20260505163500 | 23 | 118 | 11.3 | 27.4 | 0.00 | 0.00 | 0.00 | 47 | 1004.5 |
| 20260505163000 | 22 | 146 | 12.9 | 30.6 | 0.00 | 0.00 | 0.00 | 48 | 1004.6 |
| 20260505162459 | 22 | 65 | 14.5 | 30.6 | 0.00 | 0.00 | 0.00 | 46 | 1004.8 |
| 20260505161938 | 23 | 83 | 6.4 | 29.0 | 0.00 | 0.00 | 0.00 | 48 | 1005.0 |
| 20260505161438 | 23 | 87 | 11.3 | 30.6 | 0.00 | 0.00 | 0.00 | 47 | 1004.9 |
| 20260505160937 | 23 | 162 | 9.7 | 25.7 | 0.00 | 0.00 | 0.00 | 47 | 1005.1 |
| 20260505160437 | 23 | 91 | 8.0 | 27.4 | 0.00 | 0.00 | 0.00 | 49 | 1005.2 |
| 20260505153228 | 22 | 104 | 12.9 | 27.4 | 0.00 | 0.00 | 0.00 | 49 | 1006.0 |
| 20260505153136 | 22 | 109 | 11.3 | 27.4 | 0.00 | 0.00 | 0.00 | 47 | 1005.9 |
| 20260505152728 | 22 | 114 | 11.3 | 27.4 | 0.00 | 0.00 | 0.00 | 47 | 1005.9 |
| 20260505152228 | 22 | 91 | 11.3 | 29.0 | 0.00 | 0.00 | 0.00 | 46 | 1005.9 |
| 20260505151728 | 22 | 75 | 17.7 | 29.0 | 0.00 | 0.00 | 0.00 | 47 | 1005.8 |
| 20260505151619 | 22 | 66 | 12.9 | 25.7 | 0.00 | 0.00 | 0.00 | 47 | 1005.8 |
| 20260505151228 | 21 | 64 | 11.3 | 25.7 | 0.00 | 0.00 | 0.00 | 47 | 1005.6 |
| 20260505150727 | 22 | 121 | 14.5 | 24.1 | 0.00 | 0.00 | 0.00 | 46 | 1005.7 |
| 20260505150227 | 21 | 84 | 8.0 | 25.7 | 0.00 | 0.00 | 0.00 | 50 | 1005.9 |
| 20260505140641 | 19 | 22 | 9.7 | 25.7 | 0.00 | 0.00 | 0.00 | 51 | 1005.8 |
| 20260505140141 | 19 | 104 | 12.9 | 29.0 | 0.00 | 0.00 | 0.00 | 51 | 1005.8 |
| 20260505124555 | 17 | 23 | 8.0 | 17.7 | 0.00 | 0.00 | 0.00 | 57 | 1006.6 |
| 20260505124054 | 16 | 351 | 3.2 | 16.1 | 0.00 | 0.00 | 0.00 | 59 | 1006.7 |
| 20260505123554 | 16 | 52 | 8.0 | 16.1 | 0.00 | 0.00 | 0.00 | 59 | 1006.7 |
| 20260505123053 | 16 | 75 | 6.4 | 17.7 | 0.00 | 0.00 | 0.00 | 59 | 1006.6 |
| 20260505122553 | 16 | 85 | 6.4 | 22.5 | 0.00 | 0.00 | 0.00 | 60 | 1006.7 |
| 20260505122053 | 16 | 83 | 11.3 | 30.6 | 0.00 | 0.00 | 0.00 | 59 | 1006.9 |
| 20260505121553 | 16 | 47 | 8.0 | 22.5 | 0.00 | 0.00 | 0.00 | 63 | 1006.9 |
| 20260505121053 | 15 | 83 | 4.8 | 16.1 | 0.00 | 0.00 | 0.00 | 65 | 1006.9 |
| 20260505120552 | 15 | 5 | 6.4 | 22.5 | 0.00 | 0.00 | 0.00 | 63 | 1006.8 |
| 20260505120010 | 15 | 59 | 12.9 | 22.5 | 0.00 | 0.00 | 0.00 | 63 | 1006.7 |
| 20260505115509 | 15 | 47 | 6.4 | 16.1 | 0.00 | 0.00 | 0.00 | 66 | 1006.8 |
| 20260505115009 | 13 | 91 | 3.2 | 16.1 | 0.00 | 0.00 | 0.00 | 70 | 1007.0 |
| 20260505114509 | 13 | 44 | 1.6 | 9.7 | 0.00 | 0.00 | 0.00 | 75 | 1007.0 |
| 20260505114009 | 12 | 156 | 1.6 | 4.8 | 0.00 | 0.00 | 0.00 | 76 | 1006.9 |
| 20260505113447 | 12 | 150 | 0.0 | 9.7 | 0.00 | 0.00 | 0.00 | 76 | 1007.0 |
| 20260505113145 | 12 | 153 | 1.6 | 9.7 | 0.00 | 0.00 | 0.00 | 75 | 1007.1 |
| 20260505112947 | 12 | 124 | 3.2 | 9.7 | 0.00 | 0.00 | 0.00 | 75 | 1007.1 |
| 20260505112446 | 13 | 155 | 4.8 | 9.7 | 0.00 | 0.00 | 0.00 | 73 | 1007.1 |
| 20260505111946 | 12 | 100 | 3.2 | 14.5 | 0.00 | 0.00 | 0.00 | 72 | 1007.0 |
| 20260505111631 | 12 | 90 | 3.2 | 14.5 | 0.00 | 0.00 | 0.00 | 74 | 1007.0 |
| 20260505111446 | 12 | 106 | 4.8 | 14.5 | 0.00 | 0.00 | 0.00 | 74 | 1007.0 |
| 20260505110945 | 12 | 93 | 6.4 | 14.5 | 0.00 | 0.00 | 0.00 | 74 | 1007.0 |
| 20260505110445 | 11 | 5 | 1.6 | 16.1 | 0.00 | 0.00 | 0.00 | 80 | 1007.0 |
| 20260505110109 | 11 | 100 | 4.8 | 16.1 | 0.00 | 0.00 | 0.00 | 80 | 1007.1 |
| 20260505101943 | 7 | 60 | 1.6 | 9.7 | 0.00 | 0.00 | 0.00 | 93 | 1007.0 |
| 20260505101538 | 7 | 60 | 3.2 | 9.7 | 0.00 | 0.00 | 0.00 | 95 | 1007.0 |
| 20260505101442 | 7 | 60 | 3.2 | 9.7 | 0.00 | 0.00 | 0.00 | 95 | 1007.0 |
| 20260505100942 | 6 | 51 | 3.2 | 11.3 | 0.00 | 0.00 | 0.00 | 96 | 1006.9 |
| 20260505100442 | 6 | 22 | 1.6 | 4.8 | 0.00 | 0.00 | 0.00 | 96 | 1006.9 |
| 20260505095941 | 6 | 107 | 1.6 | 6.4 | 0.00 | 0.00 | 0.00 | 97 | 1006.8 |
| 20260505095441 | 6 | 105 | 1.6 | 11.3 | 0.00 | 0.00 | 0.00 | 96 | 1006.9 |
| 20260505094941 | 6 | 87 | 0.0 | 11.3 | 0.00 | 0.00 | 0.00 | 96 | 1006.9 |
| 20260505094440 | 6 | 83 | 1.6 | 6.4 | 0.00 | 0.00 | 0.00 | 97 | 1006.9 |
| 20260505093940 | 6 | 83 | 1.6 | 9.7 | 0.00 | 0.00 | 0.00 | 98 | 1007.0 |
| 20260505093440 | 5 | 72 | 3.2 | 9.7 | 0.00 | 0.00 | 0.00 | 98 | 1006.9 |
| 20260505092940 | 5 | 36 | 0.0 | 6.4 | 0.00 | 0.00 | 0.00 | 98 | 1006.9 |
| 20260505092440 | 5 | 29 | 1.6 | 6.4 | 0.00 | 0.00 | 0.00 | 98 | 1006.8 |
| 20260505091939 | 5 | 20 | 1.6 | 9.7 | 0.00 | 0.00 | 0.00 | 98 | 1006.9 |
| 20260505091439 | 4 | 50 | 1.6 | 9.7 | 0.00 | 0.00 | 0.00 | 98 | 1006.8 |
| 20260505090938 | 4 | 26 | 1.6 | 9.7 | 0.00 | 0.00 | 0.00 | 98 | 1006.9 |
| 20260505090438 | 4 | 72 | 0.0 | 9.7 | 0.00 | 0.00 | 0.00 | 98 | 1006.9 |
| 20260505085938 | 3 | 39 | 1.6 | 6.4 | 0.00 | 0.00 | 0.00 | 97 | 1007.0 |
| 20260505085437 | 3 | 39 | 1.6 | 6.4 | 0.00 | 0.00 | 0.00 | 97 | 1007.0 |
| 20260505084937 | 3 | 33 | 0.0 | 3.2 | 0.00 | 0.00 | 0.00 | 97 | 1007.0 |
| 20260505084437 | 3 | 32 | 0.0 | 1.6 | 0.00 | 0.00 | 0.00 | 97 | 1007.0 |
| 20260505083937 | 3 | 32 | 0.0 | 1.6 | 0.00 | 0.00 | 0.00 | 97 | 1007.0 |
| 20260505083436 | 3 | 32 | 0.0 | 1.6 | 0.00 | 0.00 | 0.00 | 97 | 1007.0 |
| 20260505082936 | 3 | 32 | 0.0 | 0.0 | 0.00 | 0.00 | 0.00 | 97 | 1007.0 |
| 20260505082436 | 3 | 32 | 0.0 | 0.0 | 0.00 | 0.00 | 0.00 | 97 | 1007.1 |
| 20260505081935 | 3 | 32 | 0.0 | 0.0 | 0.00 | 0.00 | 0.00 | 97 | 1007.2 |
| 20260505081353 | 3 | 32 | 0.0 | 0.0 | 0.00 | 0.00 | 0.00 | 97 | 1007.2 |
| 20260505080853 | 3 | 32 | 0.0 | 0.0 | 0.00 | 0.00 | 0.00 | 97 | 1007.3 |
| 20260505080331 | 3 | 32 | 0.0 | 0.0 | 0.00 | 0.00 | 0.00 | 97 | 1007.2 |
| 20260505075831 | 3 | 32 | 0.0 | 1.6 | 0.00 | 0.00 | 0.00 | 97 | 1007.2 |
| 20260505075331 | 3 | 32 | 0.0 | 1.6 | 0.00 | 0.00 | 0.00 | 97 | 1007.3 |
| 20260505074831 | 3 | 32 | 0.0 | 1.6 | 0.00 | 0.00 | 0.00 | 97 | 1007.2 |
| 20260505074330 | 4 | 32 | 0.0 | 1.6 | 0.00 | 0.00 | 0.00 | 97 | 1007.2 |
| 20260505073830 | 4 | 33 | 0.0 | 1.6 | 0.00 | 0.00 | 0.00 | 97 | 1007.1 |
| 20260505073329 | 4 | 33 | 0.0 | 1.6 | 0.00 | 0.00 | 0.00 | 96 | 1007.2 |
| 20260505072829 | 4 | 33 | 0.0 | 1.6 | 0.00 | 0.00 | 0.00 | 96 | 1007.2 |
| 20260505072329 | 4 | 33 | 0.0 | 1.6 | 0.00 | 0.00 | 0.00 | 96 | 1007.2 |
| 20260505071828 | 4 | 33 | 0.0 | 1.6 | 0.00 | 0.00 | 0.00 | 96 | 1007.2 |
| 20260505071654 | 4 | 33 | 0.0 | 1.6 | 0.00 | 0.00 | 0.00 | 96 | 1007.2 |
| 20260505071328 | 4 | 33 | 0.0 | 1.6 | 0.00 | 0.00 | 0.00 | 96 | 1007.1 |
| 20260505070828 | 4 | 33 | 0.0 | 1.6 | 0.00 | 0.00 | 0.00 | 96 | 1007.1 |
| 20260505070327 | 4 | 33 | 0.0 | 1.6 | 0.00 | 0.00 | 0.00 | 96 | 1007.1 |
| 20260505070140 | 4 | 33 | 0.0 | 1.6 | 0.00 | 0.00 | 0.00 | 96 | 1007.2 |
| 20260505065806 | 4 | 33 | 0.0 | 3.2 | 0.00 | 0.00 | 0.00 | 96 | 1007.2 |
| 20260505065306 | 4 | 33 | 0.0 | 3.2 | 0.00 | 0.00 | 0.00 | 96 | 1007.2 |
| 20260505064805 | 4 | 33 | 0.0 | 1.6 | 0.00 | 0.00 | 0.00 | 96 | 1007.1 |
| 20260505064624 | 4 | 33 | 0.0 | 1.6 | 0.00 | 0.00 | 0.00 | 96 | 1007.2 |
| 20260505064305 | 4 | 33 | 0.0 | 1.6 | 0.00 | 0.00 | 0.00 | 96 | 1007.1 |
| 20260505063805 | 4 | 33 | 0.0 | 0.0 | 0.00 | 0.00 | 0.00 | 96 | 1007.2 |
| 20260505063304 | 5 | 33 | 0.0 | 0.0 | 0.00 | 0.00 | 0.00 | 96 | 1007.2 |
| 20260505063058 | 5 | 33 | 0.0 | 0.0 | 0.00 | 0.00 | 0.00 | 96 | 1007.2 |
| 20260505062804 | 5 | 33 | 0.0 | 0.0 | 0.00 | 0.00 | 0.00 | 96 | 1007.2 |
| 20260505062242 | 5 | 33 | 0.0 | 3.2 | 0.00 | 0.00 | 0.00 | 96 | 1007.2 |
| 20260505061721 | 5 | 33 | 0.0 | 3.2 | 0.00 | 0.00 | 0.00 | 96 | 1007.1 |
| 20260505061544 | 5 | 33 | 0.0 | 1.6 | 0.00 | 0.00 | 0.00 | 96 | 1007.1 |
| 20260505061200 | 5 | 33 | 0.0 | 3.2 | 0.00 | 0.00 | 0.00 | 96 | 1007.1 |
| 20260505060639 | 5 | 33 | 0.0 | 3.2 | 0.00 | 0.00 | 0.00 | 96 | 1007.1 |
| 20260505060138 | 5 | 33 | 0.0 | 3.2 | 0.00 | 0.00 | 0.00 | 96 | 1007.1 |
| 20260505055617 | 5 | 33 | 0.0 | 3.2 | 0.00 | 0.00 | 0.00 | 96 | 1007.0 |
| 20260505055116 | 5 | 33 | 0.0 | 4.8 | 0.00 | 0.00 | 0.00 | 96 | 1007.0 |
| 20260505054616 | 5 | 33 | 1.6 | 4.8 | 0.00 | 0.00 | 0.00 | 95 | 1007.1 |
| 20260505054513 | 5 | 33 | 1.6 | 4.8 | 0.00 | 0.00 | 0.00 | 95 | 1007.1 |
| 20260505054055 | 5 | 28 | 0.0 | 3.2 | 0.00 | 0.00 | 0.00 | 95 | 1007.0 |
| 20260505053554 | 5 | 28 | 0.0 | 1.6 | 0.00 | 0.00 | 0.00 | 96 | 1007.1 |
| 20260505053054 | 5 | 28 | 0.0 | 1.6 | 0.00 | 0.00 | 0.00 | 96 | 1007.0 |
| 20260505052554 | 5 | 28 | 0.0 | 1.6 | 0.00 | 0.00 | 0.00 | 96 | 1007.0 |
| 20260505052054 | 5 | 28 | 0.0 | 4.8 | 0.00 | 0.00 | 0.00 | 96 | 1007.0 |
| 20260505051554 | 5 | 28 | 0.0 | 4.8 | 0.00 | 0.00 | 0.00 | 96 | 1006.9 |
| 20260505051053 | 5 | 27 | 0.0 | 3.2 | 0.00 | 0.00 | 0.00 | 96 | 1006.9 |
| 20260505050553 | 5 | 27 | 0.0 | 3.2 | 0.00 | 0.00 | 0.00 | 96 | 1006.9 |
| 20260505041425 | 5 | 27 | 0.0 | 1.6 | 0.00 | 0.00 | 0.00 | 94 | 1006.7 |
| 20260505040925 | 5 | 27 | 0.0 | 1.6 | 0.00 | 0.00 | 0.00 | 94 | 1006.7 |
| 20260505040424 | 5 | 27 | 0.0 | 1.6 | 0.00 | 0.00 | 0.00 | 94 | 1006.7 |
| 20260505035924 | 5 | 27 | 0.0 | 1.6 | 0.00 | 0.00 | 0.00 | 95 | 1006.6 |
| 20260505035424 | 5 | 27 | 0.0 | 1.6 | 0.00 | 0.00 | 0.00 | 94 | 1006.7 |
| 20260505034841 | 5 | 27 | 0.0 | 0.0 | 0.00 | 0.00 | 0.00 | 94 | 1006.6 |
| 20260505034341 | 5 | 27 | 0.0 | 1.6 | 0.00 | 0.00 | 0.00 | 94 | 1006.5 |
| 20260505033841 | 5 | 27 | 0.0 | 1.6 | 0.00 | 0.00 | 0.00 | 94 | 1006.6 |
| 20260505033340 | 6 | 27 | 0.0 | 1.6 | 0.00 | 0.00 | 0.00 | 93 | 1006.5 |
| 20260505032840 | 6 | 27 | 0.0 | 0.0 | 0.00 | 0.00 | 0.00 | 92 | 1006.5 |
| 20260505032340 | 6 | 27 | 0.0 | 0.0 | 0.00 | 0.00 | 0.00 | 93 | 1006.5 |
| 20260505031839 | 6 | 27 | 0.0 | 0.0 | 0.00 | 0.00 | 0.00 | 92 | 1006.5 |
| 20260505031339 | 6 | 27 | 0.0 | 0.0 | 0.00 | 0.00 | 0.00 | 92 | 1006.5 |
| 20260505030839 | 6 | 27 | 0.0 | 0.0 | 0.00 | 0.00 | 0.00 | 92 | 1006.5 |
| 20260505030339 | 6 | 27 | 0.0 | 1.6 | 0.00 | 0.00 | 0.00 | 92 | 1006.6 |
| 20260505025838 | 6 | 27 | 0.0 | 1.6 | 0.00 | 0.00 | 0.00 | 93 | 1006.6 |
| 20260505025338 | 6 | 27 | 0.0 | 1.6 | 0.00 | 0.00 | 0.00 | 93 | 1006.8 |
| 20260505024838 | 6 | 27 | 0.0 | 0.0 | 0.00 | 0.00 | 0.00 | 92 | 1006.8 |
| 20260505024648 | 6 | 27 | 0.0 | 0.0 | 0.00 | 0.00 | 0.00 | 91 | 1006.8 |
| 20260505024317 | 6 | 27 | 0.0 | 0.0 | 0.00 | 0.00 | 0.00 | 90 | 1006.8 |
| 20260505023816 | 6 | 27 | 0.0 | 1.6 | 0.00 | 0.00 | 0.00 | 90 | 1006.8 |
| 20260505023316 | 7 | 27 | 0.0 | 1.6 | 0.00 | 0.00 | 0.00 | 90 | 1006.8 |
| 20260505023134 | 7 | 27 | 0.0 | 1.6 | 0.00 | 0.00 | 0.00 | 90 | 1006.8 |
| 20260505022816 | 7 | 27 | 0.0 | 0.0 | 0.00 | 0.00 | 0.00 | 90 | 1006.9 |
| 20260505022316 | 7 | 27 | 0.0 | 0.0 | 0.00 | 0.00 | 0.00 | 89 | 1006.9 |
| 20260505021815 | 7 | 27 | 0.0 | 0.0 | 0.00 | 0.00 | 0.00 | 87 | 1006.8 |
| 20260505021607 | 7 | 27 | 0.0 | 1.6 | 0.00 | 0.00 | 0.00 | 87 | 1006.9 |
| 20260505021315 | 7 | 27 | 0.0 | 1.6 | 0.00 | 0.00 | 0.00 | 87 | 1006.8 |
| 20260505020815 | 7 | 27 | 0.0 | 3.2 | 0.00 | 0.00 | 0.00 | 87 | 1006.7 |
| 20260505020315 | 7 | 27 | 0.0 | 3.2 | 0.00 | 0.00 | 0.00 | 86 | 1006.9 |
| 20260505020055 | 7 | 27 | 0.0 | 4.8 | 0.00 | 0.00 | 0.00 | 85 | 1006.9 |
| 20260505015815 | 7 | 27 | 0.0 | 4.8 | 0.00 | 0.00 | 0.00 | 85 | 1006.8 |
| 20260505015314 | 7 | 28 | 1.6 | 3.2 | 0.00 | 0.00 | 0.00 | 86 | 1006.8 |
| 20260505014814 | 7 | 31 | 0.0 | 3.2 | 0.00 | 0.00 | 0.00 | 84 | 1006.8 |
| 20260505014540 | 8 | 31 | 0.0 | 3.2 | 0.00 | 0.00 | 0.00 | 84 | 1006.8 |
| 20260505014314 | 8 | 31 | 0.0 | 4.8 | 0.00 | 0.00 | 0.00 | 85 | 1006.8 |
| 20260505013813 | 8 | 32 | 1.6 | 4.8 | 0.00 | 0.00 | 0.00 | 86 | 1006.7 |
| 20260505013252 | 7 | 32 | 1.6 | 3.2 | 0.00 | 0.00 | 0.00 | 85 | 1006.7 |
| 20260505013025 | 7 | 32 | 1.6 | 3.2 | 0.00 | 0.00 | 0.00 | 86 | 1006.7 |
| 20260505012752 | 7 | 32 | 1.6 | 3.2 | 0.00 | 0.00 | 0.00 | 88 | 1006.7 |
| 20260505012252 | 7 | 33 | 0.0 | 1.6 | 0.00 | 0.00 | 0.00 | 88 | 1006.8 |
| 20260505011709 | 7 | 32 | 0.0 | 4.8 | 0.00 | 0.00 | 0.00 | 87 | 1006.6 |
| 20260505011501 | 7 | 33 | 0.0 | 4.8 | 0.00 | 0.00 | 0.00 | 87 | 1006.6 |
| 20260505011209 | 8 | 32 | 3.2 | 4.8 | 0.00 | 0.00 | 0.00 | 88 | 1006.5 |
| 20260505010709 | 8 | 60 | 0.0 | 1.6 | 0.00 | 0.00 | 0.00 | 87 | 1006.4 |
| 20260505010208 | 8 | 60 | 0.0 | 3.2 | 0.00 | 0.00 | 0.00 | 87 | 1006.3 |
| 20260505005708 | 8 | 60 | 0.0 | 4.8 | 0.00 | 0.00 | 0.00 | 85 | 1006.3 |
| 20260505005208 | 8 | 60 | 1.6 | 4.8 | 0.00 | 0.00 | 0.00 | 84 | 1006.3 |
| 20260505004707 | 8 | 96 | 1.6 | 4.8 | 0.00 | 0.00 | 0.00 | 84 | 1006.2 |
| 20260505004146 | 8 | 99 | 1.6 | 3.2 | 0.00 | 0.00 | 0.00 | 84 | 1006.1 |
| 20260505003646 | 9 | 100 | 0.0 | 3.2 | 0.00 | 0.00 | 0.00 | 85 | 1006.0 |
| 20260505003124 | 9 | 100 | 0.0 | 1.6 | 0.00 | 0.00 | 0.00 | 82 | 1005.9 |
| 20260505002624 | 9 | 100 | 0.0 | 1.6 | 0.00 | 0.00 | 0.00 | 82 | 1005.7 |
| 20260505002124 | 10 | 100 | 0.0 | 3.2 | 0.00 | 0.00 | 0.00 | 82 | 1005.7 |
| 20260505001623 | 10 | 100 | 1.6 | 3.2 | 0.00 | 0.00 | 0.00 | 81 | 1005.7 |
| 20260505001123 | 10 | 102 | 0.0 | 1.6 | 0.00 | 0.00 | 0.00 | 80 | 1005.6 |
| 20260505000623 | 10 | 102 | 0.0 | 1.6 | 0.00 | 0.00 | 0.00 | 80 | 1005.6 |
| 20260505000122 | 10 | 102 | 0.0 | 1.6 | 0.00 | 0.00 | 0.00 | 82 | 1005.5 |
| 20260504235540 | 10 | 102 | 0.0 | 0.0 | 0.00 | 0.00 | 0.00 | 80 | 1005.6 |
| 20260504235040 | 10 | 102 | 0.0 | 1.6 | 0.00 | 0.00 | 0.00 | 79 | 1005.6 |
| 20260504234539 | 11 | 102 | 0.0 | 1.6 | 0.00 | 0.00 | 0.00 | 78 | 1005.5 |
| 20260504234039 | 11 | 102 | 0.0 | 1.6 | 0.00 | 0.00 | 0.00 | 76 | 1005.4 |
| 20260504233539 | 11 | 102 | 0.0 | 0.0 | 0.00 | 0.00 | 0.00 | 77 | 1005.3 |
| 20260504233039 | 12 | 102 | 0.0 | 0.0 | 0.00 | 0.00 | 0.00 | 75 | 1005.3 |
| 20260504232538 | 12 | 103 | 0.0 | 0.0 | 0.00 | 0.00 | 0.00 | 73 | 1005.3 |
| 20260504232038 | 12 | 103 | 0.0 | 1.6 | 0.00 | 0.00 | 0.00 | 71 | 1005.2 |
| 20260504231538 | 13 | 103 | 0.0 | 3.2 | 0.00 | 0.00 | 0.00 | 68 | 1005.1 |
| 20260504231037 | 13 | 103 | 0.0 | 3.2 | 0.00 | 0.00 | 0.00 | 66 | 1005.1 |
| 20260504230537 | 14 | 102 | 0.0 | 4.8 | 0.00 | 0.00 | 0.00 | 65 | 1005.1 |
| 20260504230037 | 15 | 102 | 1.6 | 4.8 | 0.00 | 0.00 | 0.00 | 62 | 1005.0 |
| 20260504225537 | 15 | 103 | 1.6 | 4.8 | 0.00 | 0.00 | 0.00 | 60 | 1005.0 |
| 20260504225036 | 15 | 104 | 1.6 | 4.8 | 0.00 | 0.00 | 0.00 | 59 | 1005.0 |
| 20260504224536 | 14 | 112 | 0.0 | 6.4 | 0.00 | 0.00 | 0.00 | 60 | 1005.0 |
| 20260504224035 | 15 | 113 | 1.6 | 6.4 | 0.00 | 0.00 | 0.00 | 62 | 1004.9 |
| 20260504223535 | 15 | 122 | 1.6 | 6.4 | 0.00 | 0.00 | 0.00 | 58 | 1004.9 |
| 20260504223035 | 15 | 168 | 1.6 | 11.3 | 0.00 | 0.00 | 0.00 | 56 | 1004.9 |
| 20260504222535 | 15 | 119 | 1.6 | 11.3 | 0.00 | 0.00 | 0.00 | 55 | 1004.9 |
| 20260504222034 | 15 | 165 | 3.2 | 11.3 | 0.00 | 0.00 | 0.00 | 56 | 1004.8 |
| 20260504221650 | 15 | 162 | 0.0 | 16.1 | 0.00 | 0.00 | 0.00 | 56 | 1004.9 |
| 20260504221534 | 15 | 136 | 3.2 | 16.1 | 0.00 | 0.00 | 0.00 | 55 | 1004.8 |
| 20260504221034 | 15 | 119 | 4.8 | 16.1 | 0.00 | 0.00 | 0.00 | 56 | 1004.8 |
| 20260504220534 | 15 | 123 | 4.8 | 14.5 | 0.00 | 0.00 | 0.00 | 55 | 1004.8 |
| 20260504220137 | 15 | 104 | 4.8 | 19.3 | 0.00 | 0.00 | 0.00 | 55 | 1004.9 |
| 20260504220033 | 15 | 133 | 4.8 | 19.3 | 0.00 | 0.00 | 0.00 | 56 | 1004.8 |
| 20260504215533 | 15 | 143 | 8.0 | 14.5 | 0.00 | 0.00 | 0.00 | 56 | 1004.8 |
| 20260504214951 | 15 | 145 | 6.4 | 17.7 | 0.00 | 0.00 | 0.00 | 55 | 1004.8 |
| 20260504214617 | 15 | 104 | 8.0 | 17.7 | 0.00 | 0.00 | 0.00 | 55 | 1004.8 |
| 20260504214450 | 15 | 122 | 6.4 | 16.1 | 0.00 | 0.00 | 0.00 | 56 | 1004.8 |
| 20260504213950 | 15 | 162 | 4.8 | 17.7 | 0.00 | 0.00 | 0.00 | 56 | 1004.8 |
| 20260504213407 | 15 | 103 | 8.0 | 19.3 | 0.00 | 0.00 | 0.00 | 56 | 1005.0 |
| 20260504213113 | 15 | 137 | 0.0 | 14.5 | 0.00 | 0.00 | 0.00 | 60 | 1004.9 |
| 20260504212846 | 15 | 139 | 8.0 | 14.5 | 0.00 | 0.00 | 0.00 | 58 | 1004.9 |
| 20260504212324 | 15 | 158 | 4.8 | 14.5 | 0.00 | 0.00 | 0.00 | 58 | 1004.8 |
| 20260504211824 | 15 | 137 | 8.0 | 14.5 | 0.00 | 0.00 | 0.00 | 58 | 1004.7 |
| 20260504211540 | 15 | 103 | 3.2 | 12.9 | 0.00 | 0.00 | 0.00 | 58 | 1004.6 |
| 20260504211303 | 15 | 116 | 8.0 | 16.1 | 0.00 | 0.00 | 0.00 | 59 | 1004.5 |
| 20260504210802 | 15 | 104 | 8.0 | 16.1 | 0.00 | 0.00 | 0.00 | 59 | 1004.7 |
| 20260504210241 | 15 | 162 | 6.4 | 19.3 | 0.00 | 0.00 | 0.00 | 59 | 1004.6 |
| 20260504210027 | 15 | 195 | 8.0 | 24.1 | 0.00 | 0.00 | 0.00 | 59 | 1004.6 |
| 20260504205741 | 15 | 140 | 6.4 | 24.1 | 0.00 | 0.00 | 0.00 | 59 | 1004.6 |
| 20260504205240 | 15 | 140 | 6.4 | 22.5 | 0.00 | 0.00 | 0.00 | 60 | 1004.6 |
| 20260504204740 | 15 | 136 | 9.7 | 22.5 | 0.00 | 0.00 | 0.00 | 59 | 1004.7 |
| 20260504204505 | 15 | 130 | 6.4 | 22.5 | 0.00 | 0.00 | 0.00 | 60 | 1004.6 |
| 20260504204240 | 15 | 98 | 8.0 | 22.5 | 0.00 | 0.00 | 0.00 | 58 | 1004.6 |
| 20260504203740 | 14 | 100 | 8.0 | 20.9 | 0.00 | 0.00 | 0.00 | 59 | 1004.6 |
| 20260504203240 | 14 | 119 | 8.0 | 20.9 | 0.00 | 0.00 | 0.00 | 60 | 1004.6 |
| 20260504202739 | 14 | 103 | 11.3 | 22.5 | 0.00 | 0.00 | 0.00 | 59 | 1004.7 |
| 20260504202239 | 14 | 184 | 11.3 | 19.3 | 0.00 | 0.00 | 0.00 | 59 | 1004.6 |
| 20260504201718 | 14 | 147 | 8.0 | 24.1 | 0.00 | 0.00 | 0.00 | 60 | 1004.6 |
| 20260504201218 | 14 | 114 | 12.9 | 24.1 | 0.00 | 0.00 | 0.00 | 59 | 1004.7 |
| 20260504200717 | 14 | 108 | 6.4 | 29.0 | 0.00 | 0.00 | 0.00 | 60 | 1004.6 |
| 20260504200217 | 14 | 73 | 14.5 | 29.0 | 0.00 | 0.00 | 0.00 | 59 | 1004.5 |
| 20260504195717 | 14 | 154 | 11.3 | 29.0 | 0.00 | 0.00 | 0.00 | 59 | 1004.4 |
| 20260504195216 | 14 | 81 | 16.1 | 29.0 | 0.00 | 0.00 | 0.00 | 58 | 1004.4 |
| 20260504194716 | 15 | 95 | 11.3 | 25.7 | 0.00 | 0.00 | 0.00 | 59 | 1004.4 |
| 20260504194216 | 15 | 147 | 6.4 | 24.1 | 0.00 | 0.00 | 0.00 | 60 | 1004.4 |
| 20260504193655 | 14 | 108 | 8.0 | 27.4 | 0.00 | 0.00 | 0.00 | 60 | 1004.3 |
| 20260504193154 | 15 | 107 | 12.9 | 27.4 | 0.00 | 0.00 | 0.00 | 59 | 1004.4 |
| 20260504192654 | 15 | 68 | 16.1 | 27.4 | 0.00 | 0.00 | 0.00 | 58 | 1004.5 |
| 20260504192154 | 15 | 141 | 11.3 | 30.6 | 0.00 | 0.00 | 0.00 | 61 | 1004.4 |
| 20260504191653 | 14 | 71 | 14.5 | 30.6 | 0.00 | 0.00 | 0.00 | 61 | 1004.4 |
| 20260504191153 | 14 | 83 | 12.9 | 29.0 | 0.00 | 0.00 | 0.00 | 61 | 1004.3 |
| 20260504190653 | 14 | 62 | 12.9 | 29.0 | 0.00 | 0.00 | 0.00 | 61 | 1004.4 |
| 20260504190153 | 14 | 151 | 6.4 | 25.7 | 0.00 | 0.00 | 0.00 | 61 | 1004.4 |
| 20260504185631 | 15 | 52 | 14.5 | 25.7 | 0.00 | 0.05 | 0.00 | 60 | 1004.4 |
| 20260504185131 | 15 | 62 | 9.7 | 27.4 | 0.00 | 0.05 | 0.00 | 63 | 1004.5 |
| 20260504184548 | 15 | 87 | 16.1 | 27.4 | 0.00 | 0.05 | 0.00 | 62 | 1004.5 |